Fowler
DateTemperatureDew Point
05/04 - 11:45 PM53.5°51.2°
05/04 - 11:30 PM53.7°51.4°
05/04 - 11:15 PM54.1°52.0°
05/04 - 11:00 PM54.3°52.2°
05/04 - 10:45 PM54.4°52.3°
05/04 - 10:30 PM54.5°52.3°
05/04 - 10:15 PM54.7°52.6°
05/04 - 10:00 PM54.9°52.8°
05/04 - 09:45 PM55.0°52.9°
05/04 - 09:30 PM55.0°52.9°
05/04 - 09:15 PM55.1°53.0°
05/04 - 09:00 PM55.2°52.9°
05/04 - 08:45 PM55.4°53.1°
05/04 - 08:30 PM55.5°53.2°
05/04 - 08:15 PM55.6°53.2°
05/04 - 08:00 PM55.8°53.3°
05/04 - 07:45 PM56.0°53.4°
05/04 - 07:30 PM56.4°53.8°
05/04 - 07:15 PM56.6°54.1°
05/04 - 07:00 PM56.5°53.9°
05/04 - 06:45 PM56.5°53.7°
05/04 - 06:30 PM56.4°53.6°
05/04 - 06:15 PM56.4°52.9°
05/04 - 06:00 PM56.5°53.1°
05/04 - 05:45 PM56.7°52.9°
05/04 - 05:30 PM57.0°53.3°
05/04 - 05:15 PM57.3°54.0°
05/04 - 05:00 PM57.4°54.5°
05/04 - 04:45 PM57.2°54.4°
05/04 - 04:30 PM57.1°53.9°
05/04 - 04:15 PM57.0°52.6°
05/04 - 04:00 PM58.0°51.7°
05/04 - 03:45 PM59.1°50.3°
05/04 - 03:30 PM59.6°49.5°
05/04 - 03:15 PM60.0°48.4°
05/04 - 03:00 PM60.3°48.3°
05/04 - 02:45 PM60.5°48.4°
05/04 - 02:30 PM60.8°48.5°
05/04 - 02:15 PM61.2°48.6°
05/04 - 02:00 PM61.0°48.5°
05/04 - 01:45 PM60.7°47.9°
05/04 - 01:30 PM60.4°48.0°
05/04 - 01:15 PM60.4°47.8°
05/04 - 01:00 PM60.5°48.4°
05/04 - 12:45 PM61.1°48.6°
05/04 - 12:30 PM61.5°48.5°
05/04 - 12:15 PM61.9°48.3°
05/04 - 12:00 PM61.0°48.3°
05/04 - 11:45 AM60.0°48.0°
05/04 - 11:30 AM59.6°48.3°
05/04 - 11:15 AM59.2°48.1°
05/04 - 11:00 AM59.0°48.2°
05/04 - 10:45 AM58.8°48.2°
05/04 - 10:30 AM58.6°48.8°
05/04 - 10:15 AM58.5°48.0°
05/04 - 10:00 AM58.4°47.9°
05/04 - 09:45 AM58.1°48.3°
05/04 - 09:30 AM57.9°47.6°
05/04 - 09:15 AM57.7°47.3°
05/04 - 09:00 AM57.7°46.8°
05/04 - 08:45 AM57.6°47.4°
05/04 - 08:30 AM57.1°47.7°
05/04 - 08:15 AM56.7°47.2°
05/04 - 08:00 AM56.6°47.0°
05/04 - 07:45 AM56.5°46.9°
05/04 - 07:30 AM56.4°46.7°
05/04 - 07:15 AM56.4°46.0°
05/04 - 07:00 AM56.5°46.1°
05/04 - 06:45 AM56.4°46.0°
05/04 - 06:30 AM56.3°45.8°
05/04 - 06:15 AM56.4°45.7°
05/04 - 06:00 AM56.4°45.3°
05/04 - 05:45 AM56.5°45.2°
05/04 - 05:30 AM56.6°45.4°
05/04 - 05:15 AM56.7°45.7°
05/04 - 05:00 AM56.8°45.6°
05/04 - 04:45 AM56.9°45.7°
05/04 - 04:30 AM57.0°45.7°
05/04 - 04:15 AM57.1°45.8°
05/04 - 04:00 AM57.3°45.8°
05/04 - 03:45 AM57.4°45.8°
05/04 - 03:30 AM57.4°45.5°
05/04 - 03:15 AM57.5°45.6°
05/04 - 03:00 AM57.6°45.7°
05/04 - 02:45 AM57.7°45.5°
05/04 - 02:30 AM57.7°45.4°
05/04 - 02:15 AM57.8°45.4°
05/04 - 02:00 AM57.9°45.8°
05/04 - 01:45 AM58.0°45.8°
05/04 - 01:30 AM58.0°45.3°
05/04 - 01:15 AM58.0°45.0°
05/04 - 01:00 AM57.9°45.1°
05/04 - 12:45 AM57.9°44.9°
05/04 - 12:30 AM58.1°45.2°
05/04 - 12:15 AM58.1°45.4°
05/04 - 12:00 AM57.8°45.0°
05/03 - 11:45 PM58.1°45.1°
05/03 - 11:30 PM58.5°45.1°
05/03 - 11:15 PM59.0°44.9°
05/03 - 11:00 PM59.4°44.9°
05/03 - 10:45 PM60.0°45.3°
05/03 - 10:30 PM60.5°45.3°
05/03 - 10:15 PM60.8°45.2°
05/03 - 10:00 PM61.2°45.2°
05/03 - 09:45 PM61.7°45.4°
05/03 - 09:30 PM62.1°45.7°
05/03 - 09:15 PM62.5°46.4°
05/03 - 09:00 PM63.0°46.9°
05/03 - 08:45 PM63.7°47.0°
05/03 - 08:30 PM64.6°47.5°
05/03 - 08:15 PM65.4°48.3°
05/03 - 08:00 PM66.5°49.4°
05/03 - 07:45 PM67.4°50.1°
05/03 - 07:30 PM67.3°50.9°
05/03 - 07:15 PM66.8°53.3°
05/03 - 07:00 PM68.0°53.7°
05/03 - 06:45 PM69.2°54.6°
05/03 - 06:30 PM70.7°54.9°
05/03 - 06:15 PM72.3°53.8°
05/03 - 06:00 PM73.6°53.1°
05/03 - 05:45 PM74.3°51.6°
05/03 - 05:30 PM74.8°51.1°
05/03 - 05:15 PM75.3°51.9°
05/03 - 05:00 PM75.6°52.3°
05/03 - 04:45 PM75.7°52.4°
05/03 - 04:30 PM75.6°52.7°
05/03 - 04:15 PM75.9°52.5°
05/03 - 04:00 PM76.2°53.0°
05/03 - 03:45 PM76.6°53.3°
05/03 - 03:30 PM76.5°54.0°
05/03 - 03:15 PM76.7°53.3°
05/03 - 03:00 PM76.8°53.4°
05/03 - 02:45 PM77.0°53.9°
05/03 - 02:30 PM76.9°53.6°
05/03 - 02:15 PM77.1°53.5°
05/03 - 02:00 PM77.4°53.8°
05/03 - 01:45 PM77.2°53.7°
05/03 - 01:30 PM77.4°53.6°
05/03 - 01:15 PM77.6°54.3°
05/03 - 01:00 PM76.8°53.8°
05/03 - 12:45 PM76.7°53.8°
05/03 - 12:30 PM76.1°53.8°
05/03 - 12:15 PM74.5°53.3°
05/03 - 12:00 PM75.8°53.4°
05/03 - 11:45 AM73.9°52.4°
05/03 - 11:30 AM74.0°52.4°
05/03 - 11:15 AM72.4°52.0°
05/03 - 11:00 AM71.7°51.9°
05/03 - 10:45 AM71.1°52.2°
05/03 - 10:30 AM70.2°52.2°
05/03 - 10:15 AM69.0°52.2°
05/03 - 10:00 AM67.9°51.8°
05/03 - 09:45 AM66.9°51.6°
05/03 - 09:30 AM65.6°51.4°
05/03 - 09:15 AM64.1°51.2°
05/03 - 09:00 AM62.8°50.5°
05/03 - 08:45 AM62.1°50.7°
05/03 - 08:30 AM61.1°50.7°
05/03 - 08:15 AM60.2°50.3°
05/03 - 08:00 AM59.5°50.4°
05/03 - 07:45 AM58.7°50.3°
05/03 - 07:30 AM57.5°50.4°
05/03 - 07:15 AM55.3°51.3°
05/03 - 07:00 AM53.4°51.2°
05/03 - 06:45 AM52.4°49.8°
05/03 - 06:30 AM52.3°49.4°
05/03 - 06:15 AM52.3°49.2°
05/03 - 06:00 AM52.5°49.3°
05/03 - 05:45 AM52.7°49.4°
05/03 - 05:30 AM52.9°49.6°
05/03 - 05:15 AM53.2°49.7°
05/03 - 05:00 AM53.6°50.0°
05/03 - 04:45 AM53.9°50.2°
05/03 - 04:30 AM54.0°50.3°
05/03 - 04:15 AM54.1°50.2°
05/03 - 04:00 AM54.4°50.3°
05/03 - 03:45 AM55.0°50.4°
05/03 - 03:30 AM55.5°51.0°
05/03 - 03:15 AM56.0°51.1°
05/03 - 03:00 AM56.7°51.0°
05/03 - 02:45 AM57.7°51.5°
05/03 - 02:30 AM58.6°51.6°
05/03 - 02:15 AM59.2°51.6°
05/03 - 02:00 AM60.0°52.1°
05/03 - 01:45 AM61.0°52.4°
05/03 - 01:30 AM61.6°52.1°
05/03 - 01:15 AM62.0°52.6°
05/03 - 01:00 AM62.2°53.4°
05/03 - 12:45 AM62.9°54.1°
05/03 - 12:30 AM63.5°54.6°